Weather History for PHNG - January, 2014

Change the Weather History Date:

Saturday, January 4, 2014

  Actual Average Record
Temperature  
Mean Temperature 76 °F -  
Max Temperature 80 °F 76 °F 82 °F (2003)
Min Temperature 72 °F 66 °F 60 °F (2002)
Cooling Degree Days 11    
Growing Degree Days 26 (Base 50)    
Moisture  
Dew Point 51 °F    
Average Humidity 42    
Maximum Humidity 52    
Minimum Humidity 33    
Precipitation  
Precipitation 0.00 in - - ()
Sea Level Pressure  
Sea Level Pressure 29.94 in    
Wind  
Wind Speed 14 mph (NE)    
Max Wind Speed 18 mph    
Max Gust Speed 25 mph    
Visibility 8 miles    
Events Rain    
Averages and records for this station are not official NWS values.
T = Trace of Precipitation, MM = Missing Value Source: NWS Daily Summary

Daily Weather History Graph

Daily Weather History Graph

Search for Another Location

Airport or City:

Trip Planner

Search our weather history database for the weather conditions in past years. The results will help you decide how hot, cold, wet, or windy it might be!

Date:

Astronomy

Jan. 04, 2014 Rise Set
Actual Time 7:09 AM HST 6:02 PM HST
Civil Twilight 6:45 AM HST 6:26 PM HST
Nautical Twilight 6:18 AM HST 6:54 PM HST
Astronomical Twilight 5:50 AM HST 7:21 PM HST
Moon 9:53 AM HST (1/4) 10:00 PM HST (1/4)
Length of Visible Light 11h 40m
Length of Day
10h 52m
Waxing Crescent, 17% of the Moon is Illuminated
Jan 4
Waxing Crescent
Jan 7
First Quarter
Jan 15
Full
Jan 23
Last Quarter
Jan 30
New

Hourly Weather History & Observations

Time (HST) Temp. Dew Point Humidity Pressure Visibility Wind Dir Wind Speed Gust Speed Precip Events Conditions
12:57 AM 72.3 °F 54.0 °F 52% 29.90 in 9.0 mi North 18.4 mph 25.3 mph N/A   Partly Cloudy
1:57 AM 72.3 °F 51.1 °F 47% 29.89 in 10.0 mi NNE 12.7 mph - N/A   Overcast
2:57 AM 72.3 °F 48.9 °F 43% 29.88 in 8.0 mi NNE 16.1 mph 23.0 mph N/A   Overcast
3:57 AM 72.3 °F 52.0 °F 49% 29.89 in 9.0 mi North 16.1 mph 23.0 mph N/A   Overcast
4:57 AM 72.3 °F 48.9 °F 43% 29.90 in 10.0 mi North 17.3 mph - N/A   Overcast
5:57 AM 72.3 °F 48.0 °F 42% 29.92 in 10.0 mi NNE 11.5 mph 24.2 mph N/A   Mostly Cloudy
6:57 AM 72.3 °F 48.0 °F 42% 29.93 in 9.0 mi NNE 16.1 mph 21.9 mph N/A   Mostly Cloudy
7:57 AM 72.3 °F 48.9 °F 43% 29.95 in 9.0 mi NNE 9.2 mph - N/A   Overcast
8:57 AM 74.7 °F 48.0 °F 39% 29.97 in 9.0 mi NE 13.8 mph 25.3 mph N/A   Overcast
9:57 AM 76.5 °F 50.0 °F 39% 29.98 in 7.0 mi NE 11.5 mph 19.6 mph N/A   Scattered Clouds
10:57 AM 77.0 °F 50.0 °F 39% 29.97 in 9.0 mi NE 10.4 mph - N/A   Clear
11:57 AM 77.0 °F 50.0 °F 39% 29.95 in 7.0 mi NNE 13.8 mph 18.4 mph N/A   Mostly Cloudy
12:57 PM 77.0 °F 52.0 °F 42% 29.91 in 10.0 mi NNE 11.5 mph - N/A   Clear
1:57 PM 78.8 °F 48.9 °F 35% 29.90 in 9.0 mi NE 10.4 mph - N/A   Clear
2:57 PM 80.6 °F 50.0 °F 34% 29.89 in 10.0 mi NNE 11.5 mph 18.4 mph N/A   Clear
3:57 PM 80.6 °F 48.9 °F 33% 29.90 in 10.0 mi NE 10.4 mph - N/A   Clear
4:57 PM 78.8 °F 48.9 °F 35% 29.91 in 7.0 mi NE 10.4 mph - N/A   Partly Cloudy
5:57 PM 78.8 °F 51.1 °F 38% 29.93 in 6.0 mi NE 12.7 mph 18.4 mph N/A   Haze
6:57 PM 78.8 °F 53.1 °F 41% 29.95 in 8.0 mi NNE 13.8 mph 21.9 mph N/A   Clear
7:57 PM 78.8 °F 55.0 °F 44% 29.97 in 8.0 mi NE 12.7 mph 19.6 mph N/A   Scattered Clouds
8:57 PM 78.8 °F 54.0 °F 42% 29.99 in 6.0 mi East 9.2 mph - N/A Rain Light Rain
9:57 PM 77.0 °F 55.0 °F 47% 30.00 in 7.0 mi NNE 15.0 mph 19.6 mph N/A   Mostly Cloudy
10:57 PM 77.0 °F 57.0 °F 50% 29.99 in 7.0 mi NNE 13.8 mph - N/A   Mostly Cloudy
11:57 PM 75.2 °F 55.0 °F 49% 29.98 in 7.0 mi ENE 9.2 mph 20.7 mph N/A   Scattered Clouds